Time,TemperatureF,DewpointF,PressureIn,WindDirection,WindDirectionDegrees,WindSpeedMPH,WindSpeedGustMPH,Humidity,HourlyPrecipIn,Conditions,Clouds,dailyrainin,SoftwareType,DateUTC
2013-01-02 00:00:00,12.0,3.0,30.04,West,270,2.0,-999.0,65,-99.99,,,-99.99,,2013-01-02 05:00:00,
2013-01-02 00:22:00,12.0,3.0,30.04,West,270,2.0,-999.0,65,-99.99,,,-99.99,,2013-01-02 05:22:00,
2013-01-02 00:32:00,12.0,3.0,30.04,West,270,2.0,-999.0,65,-99.99,,,-99.99,,2013-01-02 05:32:00,
2013-01-02 00:42:00,12.0,3.0,30.04,West,270,2.0,-999.0,65,-99.99,,,-99.99,,2013-01-02 05:42:00,
2013-01-02 00:52:00,12.0,3.0,30.04,West,270,2.0,-999.0,65,-99.99,,,-99.99,,2013-01-02 05:52:00,
2013-01-02 01:00:00,12.0,2.0,30.06,West,270,1.0,-999.0,63,-99.99,,,-99.99,,2013-01-02 06:00:00,
2013-01-02 01:22:00,12.0,2.0,30.06,West,270,1.0,-999.0,63,-99.99,,,-99.99,,2013-01-02 06:22:00,
2013-01-02 01:32:00,12.0,2.0,30.06,West,270,1.0,-999.0,63,-99.99,,,-99.99,,2013-01-02 06:32:00,
2013-01-02 01:42:00,12.0,2.0,30.06,West,270,1.0,-999.0,63,-99.99,,,-99.99,,2013-01-02 06:42:00,
2013-01-02 01:52:00,12.0,2.0,30.06,West,270,1.0,-999.0,63,-99.99,,,-99.99,,2013-01-02 06:52:00,
2013-01-02 02:00:00,11.0,2.0,30.06,NNW,340,1.0,-999.0,65,-99.99,,,-99.99,,2013-01-02 07:00:00,
2013-01-02 02:22:00,11.0,2.0,30.06,NNW,340,1.0,-999.0,65,-99.99,,,-99.99,,2013-01-02 07:22:00,
2013-01-02 02:32:00,11.0,2.0,30.06,NNW,340,1.0,-999.0,65,-99.99,,,-99.99,,2013-01-02 07:32:00,
2013-01-02 02:42:00,11.0,2.0,30.06,NNW,340,1.0,-999.0,65,-99.99,,,-99.99,,2013-01-02 07:42:00,
2013-01-02 02:52:00,11.0,2.0,30.06,NNW,340,1.0,-999.0,65,-99.99,,,-99.99,,2013-01-02 07:52:00,
2013-01-02 03:00:00,11.0,2.0,30.06,North,0,0.0,-999.0,64,-99.99,,,-99.99,,2013-01-02 08:00:00,
2013-01-02 03:21:00,11.0,2.0,30.06,North,0,0.0,-999.0,64,-99.99,,,-99.99,,2013-01-02 08:21:00,
2013-01-02 03:32:00,11.0,2.0,30.06,North,0,0.0,-999.0,64,-99.99,,,-99.99,,2013-01-02 08:32:00,
2013-01-02 03:42:00,11.0,2.0,30.06,North,0,0.0,-999.0,64,-99.99,,,-99.99,,2013-01-02 08:42:00,
2013-01-02 03:52:00,11.0,2.0,30.06,North,0,0.0,-999.0,64,-99.99,,,-99.99,,2013-01-02 08:52:00,
2013-01-02 04:00:00,10.0,2.0,30.06,NE,40,3.0,-999.0,68,-99.99,,,-99.99,,2013-01-02 09:00:00,
2013-01-02 04:22:00,10.0,2.0,30.06,NE,40,3.0,-999.0,68,-99.99,,,-99.99,,2013-01-02 09:22:00,
2013-01-02 04:32:00,10.0,2.0,30.06,NE,40,3.0,-999.0,68,-99.99,,,-99.99,,2013-01-02 09:32:00,
2013-01-02 04:42:00,10.0,2.0,30.06,NE,40,3.0,-999.0,68,-99.99,,,-99.99,,2013-01-02 09:42:00,
2013-01-02 04:52:00,10.0,2.0,30.06,NE,40,3.0,-999.0,68,-99.99,,,-99.99,,2013-01-02 09:52:00,
2013-01-02 05:00:00,11.0,3.0,30.07,North,0,0.0,-999.0,68,-99.99,,,-99.99,,2013-01-02 10:00:00,
2013-01-02 05:22:00,11.0,3.0,30.07,North,0,0.0,-999.0,68,-99.99,,,-99.99,,2013-01-02 10:22:00,
2013-01-02 05:32:00,11.0,3.0,30.07,North,0,0.0,-999.0,68,-99.99,,,-99.99,,2013-01-02 10:32:00,
2013-01-02 05:42:00,11.0,3.0,30.07,North,0,0.0,-999.0,68,-99.99,,,-99.99,,2013-01-02 10:42:00,
2013-01-02 05:52:00,11.0,3.0,30.07,North,0,0.0,-999.0,68,-99.99,,,-99.99,,2013-01-02 10:52:00,
2013-01-02 06:00:00,12.0,4.0,30.06,NNW,330,1.0,-999.0,69,-99.99,,,-99.99,,2013-01-02 11:00:00,
2013-01-02 06:22:00,12.0,4.0,30.06,NNW,330,1.0,-999.0,69,-99.99,,,-99.99,,2013-01-02 11:22:00,
2013-01-02 06:32:00,12.0,4.0,30.06,NNW,330,1.0,-999.0,69,-99.99,,,-99.99,,2013-01-02 11:32:00,
2013-01-02 06:42:00,12.0,4.0,30.06,NNW,330,1.0,-999.0,69,-99.99,,,-99.99,,2013-01-02 11:42:00,
2013-01-02 06:52:00,12.0,4.0,30.06,NNW,330,1.0,-999.0,69,-99.99,,,-99.99,,2013-01-02 11:52:00,
2013-01-02 07:00:00,13.0,7.0,30.07,East,80,8.0,-999.0,76,-99.99,,,-99.99,,2013-01-02 12:00:00,
2013-01-02 07:22:00,13.0,7.0,30.07,East,80,8.0,-999.0,76,-99.99,,,-99.99,,2013-01-02 12:22:00,
2013-01-02 07:32:00,13.0,7.0,30.07,East,80,8.0,-999.0,76,-99.99,,,-99.99,,2013-01-02 12:32:00,
2013-01-02 07:42:00,13.0,7.0,30.07,East,80,8.0,-999.0,76,-99.99,,,-99.99,,2013-01-02 12:42:00,
2013-01-02 07:52:00,13.0,7.0,30.07,East,80,8.0,-999.0,76,-99.99,,,-99.99,,2013-01-02 12:52:00,
2013-01-02 08:00:00,13.0,8.0,30.06,ENE,70,13.0,-999.0,79,-99.99,,,-99.99,,2013-01-02 13:00:00,
2013-01-02 08:22:00,13.0,8.0,30.06,ENE,70,13.0,-999.0,79,-99.99,,,-99.99,,2013-01-02 13:22:00,
2013-01-02 08:32:00,13.0,8.0,30.06,ENE,70,13.0,-999.0,79,-99.99,,,-99.99,,2013-01-02 13:32:00,
2013-01-02 08:42:00,13.0,8.0,30.06,ENE,70,13.0,-999.0,79,-99.99,,,-99.99,,2013-01-02 13:42:00,
2013-01-02 08:52:00,13.0,8.0,30.06,ENE,70,13.0,-999.0,79,-99.99,,,-99.99,,2013-01-02 13:52:00,
2013-01-02 09:00:00,14.0,10.0,30.06,NE,50,11.0,-999.0,84,-99.99,,,-99.99,,2013-01-02 14:00:00,
2013-01-02 09:22:00,14.0,10.0,30.06,NE,50,11.0,-999.0,84,-99.99,,,-99.99,,2013-01-02 14:22:00,
2013-01-02 09:32:00,14.0,10.0,30.06,NE,50,11.0,-999.0,84,-99.99,,,-99.99,,2013-01-02 14:32:00,
2013-01-02 09:42:00,14.0,10.0,30.06,NE,50,11.0,-999.0,84,-99.99,,,-99.99,,2013-01-02 14:42:00,
2013-01-02 09:53:00,14.0,10.0,30.06,NE,50,11.0,-999.0,84,-99.99,,,-99.99,,2013-01-02 14:53:00,
2013-01-02 10:00:00,15.0,12.0,30.05,ENE,60,15.0,-999.0,86,-99.99,,,-99.99,,2013-01-02 15:00:00,
2013-01-02 10:22:00,15.0,12.0,30.05,ENE,60,15.0,-999.0,86,-99.99,,,-99.99,,2013-01-02 15:22:00,
2013-01-02 10:32:00,15.0,12.0,30.05,ENE,60,15.0,-999.0,86,-99.99,,,-99.99,,2013-01-02 15:32:00,
2013-01-02 10:42:00,15.0,12.0,30.05,ENE,60,15.0,-999.0,86,-99.99,,,-99.99,,2013-01-02 15:42:00,
2013-01-02 10:52:00,15.0,12.0,30.05,ENE,60,15.0,-999.0,86,-99.99,,,-99.99,,2013-01-02 15:52:00,
2013-01-02 11:00:00,16.0,13.0,30.06,ENE,60,17.0,-999.0,86,-99.99,,,-99.99,,2013-01-02 16:00:00,
2013-01-02 11:22:00,16.0,13.0,30.06,ENE,60,17.0,-999.0,86,-99.99,,,-99.99,,2013-01-02 16:22:00,
2013-01-02 11:32:00,16.0,13.0,30.06,ENE,60,17.0,-999.0,86,-99.99,,,-99.99,,2013-01-02 16:32:00,
2013-01-02 11:42:00,16.0,13.0,30.06,ENE,60,17.0,-999.0,86,-99.99,,,-99.99,,2013-01-02 16:42:00,
2013-01-02 11:53:00,16.0,13.0,30.06,ENE,60,17.0,-999.0,86,-99.99,,,-99.99,,2013-01-02 16:53:00,
2013-01-02 12:00:00,16.0,14.0,30.06,ENE,60,16.0,-999.0,89,-99.99,,,-99.99,,2013-01-02 17:00:00,
2013-01-02 12:22:00,16.0,14.0,30.06,ENE,60,16.0,-999.0,89,-99.99,,,-99.99,,2013-01-02 17:22:00,
2013-01-02 12:32:00,16.0,14.0,30.06,ENE,60,16.0,-999.0,89,-99.99,,,-99.99,,2013-01-02 17:32:00,
2013-01-02 12:42:00,16.0,14.0,30.06,ENE,60,16.0,-999.0,89,-99.99,,,-99.99,,2013-01-02 17:42:00,
2013-01-02 12:53:00,16.0,14.0,30.06,ENE,60,16.0,-999.0,89,-99.99,,,-99.99,,2013-01-02 17:53:00,
2013-01-02 13:00:00,18.0,15.0,30.04,ENE,60,16.0,-999.0,88,-99.99,,,-99.99,,2013-01-02 18:00:00,
2013-01-02 13:22:00,18.0,15.0,30.04,ENE,60,16.0,-999.0,88,-99.99,,,-99.99,,2013-01-02 18:22:00,
2013-01-02 13:32:00,18.0,15.0,30.04,ENE,60,16.0,-999.0,88,-99.99,,,-99.99,,2013-01-02 18:32:00,
2013-01-02 13:42:00,18.0,15.0,30.04,ENE,60,16.0,-999.0,88,-99.99,,,-99.99,,2013-01-02 18:42:00,
2013-01-02 13:52:00,18.0,15.0,30.04,ENE,60,16.0,-999.0,88,-99.99,,,-99.99,,2013-01-02 18:52:00,
2013-01-02 14:00:00,18.0,16.0,30.02,ENE,60,16.0,-999.0,88,-99.99,,,-99.99,,2013-01-02 19:00:00,
2013-01-02 14:22:00,18.0,16.0,30.02,ENE,60,16.0,-999.0,88,-99.99,,,-99.99,,2013-01-02 19:22:00,
2013-01-02 14:32:00,18.0,16.0,30.02,ENE,60,16.0,-999.0,88,-99.99,,,-99.99,,2013-01-02 19:32:00,
2013-01-02 14:42:00,18.0,16.0,30.02,ENE,60,16.0,-999.0,88,-99.99,,,-99.99,,2013-01-02 19:42:00,
2013-01-02 14:52:00,18.0,16.0,30.02,ENE,60,16.0,-999.0,88,-99.99,,,-99.99,,2013-01-02 19:52:00,
2013-01-02 15:00:00,20.0,18.0,30.00,ENE,60,17.0,-999.0,89,-99.99,,,-99.99,,2013-01-02 20:00:00,
2013-01-02 15:22:00,20.0,18.0,30.00,ENE,60,17.0,-999.0,89,-99.99,,,-99.99,,2013-01-02 20:22:00,
2013-01-02 15:32:00,20.0,18.0,30.00,ENE,60,17.0,-999.0,89,-99.99,,,-99.99,,2013-01-02 20:32:00,
2013-01-02 15:42:00,20.0,18.0,30.00,ENE,60,17.0,-999.0,89,-99.99,,,-99.99,,2013-01-02 20:42:00,
2013-01-02 15:53:00,20.0,18.0,30.00,ENE,60,17.0,-999.0,89,-99.99,,,-99.99,,2013-01-02 20:53:00,
2013-01-02 16:00:00,22.0,20.0,30.00,ENE,60,14.0,-999.0,90,-99.99,,,-99.99,,2013-01-02 21:00:00,
2013-01-02 16:22:00,22.0,20.0,30.00,ENE,60,14.0,-999.0,90,-99.99,,,-99.99,,2013-01-02 21:22:00,
2013-01-02 16:32:00,22.0,20.0,30.00,ENE,60,14.0,-999.0,90,-99.99,,,-99.99,,2013-01-02 21:32:00,
2013-01-02 16:42:00,22.0,20.0,30.00,ENE,60,14.0,-999.0,90,-99.99,,,-99.99,,2013-01-02 21:42:00,
2013-01-02 16:52:00,22.0,20.0,30.00,ENE,60,14.0,-999.0,90,-99.99,,,-99.99,,2013-01-02 21:52:00,
2013-01-02 17:00:00,23.0,20.0,30.01,ENE,60,11.0,-999.0,89,-99.99,,,-99.99,,2013-01-02 22:00:00,
2013-01-02 17:22:00,23.0,20.0,30.01,ENE,60,11.0,-999.0,89,-99.99,,,-99.99,,2013-01-02 22:22:00,
2013-01-02 17:32:00,23.0,20.0,30.01,ENE,60,11.0,-999.0,89,-99.99,,,-99.99,,2013-01-02 22:32:00,
2013-01-02 17:42:00,23.0,20.0,30.01,ENE,60,11.0,-999.0,89,-99.99,,,-99.99,,2013-01-02 22:42:00,
2013-01-02 17:52:00,23.0,20.0,30.01,ENE,60,11.0,-999.0,89,-99.99,,,-99.99,,2013-01-02 22:52:00,
2013-01-02 18:00:00,24.0,21.0,30.01,ENE,70,7.0,-999.0,89,-99.99,,,-99.99,,2013-01-02 23:00:00,
2013-01-02 18:22:00,24.0,21.0,30.01,ENE,70,7.0,-999.0,89,-99.99,,,-99.99,,2013-01-02 23:22:00,
2013-01-02 18:32:00,24.0,21.0,30.01,ENE,70,7.0,-999.0,89,-99.99,,,-99.99,,2013-01-02 23:32:00,
2013-01-02 18:42:00,24.0,21.0,30.01,ENE,70,7.0,-999.0,89,-99.99,,,-99.99,,2013-01-02 23:42:00,
2013-01-02 18:52:00,24.0,21.0,30.01,ENE,70,7.0,-999.0,89,-99.99,,,-99.99,,2013-01-02 23:52:00,
2013-01-02 19:00:00,23.0,19.0,30.02,West,280,1.0,-999.0,84,-99.99,,,-99.99,,2013-01-03 00:00:00,
2013-01-02 19:22:00,23.0,19.0,30.02,West,280,1.0,-999.0,84,-99.99,,,-99.99,,2013-01-03 00:22:00,
2013-01-02 19:42:00,23.0,19.0,30.02,West,280,1.0,-999.0,84,-99.99,,,-99.99,,2013-01-03 00:42:00,
2013-01-02 19:52:00,23.0,19.0,30.02,West,280,1.0,-999.0,84,-99.99,,,-99.99,,2013-01-03 00:52:00,
2013-01-02 20:00:00,21.0,17.0,30.03,West,280,6.0,-999.0,84,-99.99,,,-99.99,,2013-01-03 01:00:00,
2013-01-02 20:22:00,21.0,17.0,30.03,West,280,6.0,-999.0,84,-99.99,,,-99.99,,2013-01-03 01:22:00,
2013-01-02 20:32:00,21.0,17.0,30.03,West,280,6.0,-999.0,84,-99.99,,,-99.99,,2013-01-03 01:32:00,
2013-01-02 20:42:00,21.0,17.0,30.03,West,280,6.0,-999.0,84,-99.99,,,-99.99,,2013-01-03 01:42:00,
2013-01-02 20:52:00,21.0,17.0,30.03,West,280,6.0,-999.0,84,-99.99,,,-99.99,,2013-01-03 01:52:00,
2013-01-02 21:00:00,21.0,18.0,30.02,WSW,250,5.0,-999.0,87,-99.99,,,-99.99,,2013-01-03 02:00:00,
2013-01-02 21:22:00,21.0,18.0,30.02,WSW,250,5.0,-999.0,87,-99.99,,,-99.99,,2013-01-03 02:22:00,
2013-01-02 21:32:00,21.0,18.0,30.02,WSW,250,5.0,-999.0,87,-99.99,,,-99.99,,2013-01-03 02:32:00,
2013-01-02 21:42:00,21.0,18.0,30.02,WSW,250,5.0,-999.0,87,-99.99,,,-99.99,,2013-01-03 02:42:00,
2013-01-02 21:52:00,21.0,18.0,30.02,WSW,250,5.0,-999.0,87,-99.99,,,-99.99,,2013-01-03 02:52:00,
2013-01-02 22:00:00,20.0,17.0,30.01,West,260,5.0,-999.0,85,-99.99,,,-99.99,,2013-01-03 03:00:00,
2013-01-02 22:22:00,20.0,17.0,30.01,West,260,5.0,-999.0,85,-99.99,,,-99.99,,2013-01-03 03:22:00,
2013-01-02 22:32:00,20.0,17.0,30.01,West,260,5.0,-999.0,85,-99.99,,,-99.99,,2013-01-03 03:32:00,
2013-01-02 22:52:00,20.0,17.0,30.01,West,260,5.0,-999.0,85,-99.99,,,-99.99,,2013-01-03 03:52:00,
2013-01-02 23:00:00,20.0,17.0,30.02,West,260,5.0,-999.0,86,-99.99,,,-99.99,,2013-01-03 04:00:00,
2013-01-02 23:22:00,20.0,17.0,30.02,West,260,5.0,-999.0,86,-99.99,,,-99.99,,2013-01-03 04:22:00,
2013-01-02 23:32:00,20.0,17.0,30.02,West,260,5.0,-999.0,86,-99.99,,,-99.99,,2013-01-03 04:32:00,
2013-01-02 23:42:00,20.0,17.0,30.02,West,260,5.0,-999.0,86,-99.99,,,-99.99,,2013-01-03 04:42:00,
2013-01-02 23:52:00,20.0,17.0,30.02,West,260,5.0,-999.0,86,-99.99,,,-99.99,,2013-01-03 04:52:00,